Location: Archemont
(49.1579°N, 1.7598°E)
Time: 23:35:58
(UTC+00:00)

Transit 4A - Visible Passes

Search period start: 16 April 2024 00:00
Search period end: 26 April 2024 00:00
Orbit: 871 x 972 km, 66.8° (Epoch: 16 April)

Date Brightness Start Highest point End Pass type
(mag) Time Alt. Az. Time Alt. Az. Time Alt. Az.
16 Apr 9.4 19:57:07 10° NNW 20:01:47 24° NNE 20:06:25 10° E visible
16 Apr 7.7 21:43:10 10° NW 21:49:01 79° NE 21:50:07 60° SE visible
16 Apr 9.5 23:30:29 10° WNW 23:33:37 20° W 23:33:37 20° W visible
17 Apr 9.1 20:06:07 10° NNW 20:11:10 29° NE 20:15:31 13° E visible
17 Apr 7.7 21:52:15 10° NW 21:58:05 76° WSW 21:59:01 62° S visible
17 Apr 9.9 23:40:31 10° WNW 23:42:30 14° W 23:42:30 14° W visible
18 Apr 8.7 20:15:06 10° NNW 20:20:30 37° NE 20:24:26 17° E visible
18 Apr 8.0 22:01:24 10° NW 22:07:03 54° WSW 22:07:56 50° SSW visible
19 Apr 8.3 20:24:06 10° NNW 20:29:45 48° NE 20:33:23 21° ESE visible
19 Apr 8.6 22:10:39 10° NW 22:15:59 38° WSW 22:16:53 36° SW visible
20 Apr 7.9 20:33:07 10° NNW 20:38:55 64° NE 20:42:22 25° SE visible
20 Apr 9.1 22:20:02 10° NW 22:24:50 27° WSW 22:25:52 25° SW visible
21 Apr 7.7 20:42:09 10° NW 20:48:01 87° NE 20:51:23 27° SE visible
21 Apr 9.6 22:29:42 10° WNW 22:33:36 19° WSW 22:34:53 17° WSW visible
22 Apr 7.9 20:51:15 10° NW 20:57:03 69° WSW 21:00:27 26° SSE visible
22 Apr 10.0 22:40:01 10° WNW 22:42:19 12° WSW 22:43:57 11° WSW visible
23 Apr 8.4 21:00:25 10° NW 21:06:01 49° WSW 21:09:33 22° S visible
24 Apr 8.2 19:23:03 10° NNW 19:28:46 52° NE 19:34:29 10° ESE visible
24 Apr 9.0 21:09:42 10° NW 21:14:54 34° WSW 21:18:42 17° SSW visible
25 Apr 7.9 19:32:05 10° NNW 19:37:55 71° NE 19:43:46 10° SE visible
25 Apr 9.5 21:19:10 10° WNW 21:23:44 24° WSW 21:27:54 12° SSW visible
